Back to catalog

STARLINK-31665

AliveCommunicationsVLEO
NORAD 59655·PAYLOAD·🇺🇸 United States

Launched May 6, 2024 from Cape Canaveral Space Force Station

Loading…

Next Passes (next 24 hours)

TLE

FreshSource: CelesTrak SupGP

Epoch: Sep 14, 2026, 14:54 UTC

1 59655C 24084B   26257.62131944 -.00037489  00000+0 -13581-2 0  2579
2 59655  43.0007  51.2993 0001378 268.8562 265.4617 15.27591844    19

Track STARLINK-31665 in real time with AllMySat

Download on the App Store